CST,Max TemperatureF,Mean TemperatureF,Min TemperatureF,Max Dew PointF,MeanDew PointF,Min DewpointF,Max Humidity, Mean Humidity, Min Humidity, Max Sea Level PressureIn, Mean Sea Level PressureIn, Min Sea Level PressureIn, Max VisibilityMiles, Mean VisibilityMiles, Min VisibilityMiles, Max Wind SpeedMPH, Mean Wind SpeedMPH, Max Gust SpeedMPH,PrecipitationIn, CloudCover, Events, WindDirDegrees
2011-11-1,53,46,39,36,32,28,65,58,50,30.28,30.08,29.81,10,8,2,24,14,38,0.00,5,Rain-Snow,346
2011-11-2,44,33,21,33,26,15,100,67,33,30.47,30.37,30.22,10,10,4,25,12,31,0.02,4,Snow,331
2011-11-3,51,33,14,26,17,12,92,57,22,30.43,30.28,30.07,10,10,10,23,11,28,0.00,0,,204
2011-11-4,53,43,32,28,23,19,60,46,32,30.07,29.91,29.76,10,10,10,26,15,35,0.00,0,,187
2011-11-5,62,48,33,39,29,27,60,44,27,29.68,29.45,29.31,10,10,9,31,16,39,0.13,2,Rain,187
2011-11-6,50,39,27,32,26,14,96,60,24,30.08,29.74,29.47,10,8,1,26,12,33,0.08,3,Snow,273
2011-11-7,43,32,20,25,20,16,88,61,33,30.29,30.21,30.11,10,10,10,9,3,10,0.00,3,,92
2011-11-8,52,37,21,29,24,19,92,62,32,30.31,30.21,30.13,10,10,10,14,3,18,0.00,3,,280
2011-11-9,47,35,22,23,17,12,81,54,27,30.46,30.38,30.27,10,10,10,24,11,32,0.00,0,,302
2011-11-10,55,35,14,22,17,11,88,56,24,30.39,30.18,29.85,10,10,10,13,6,17,0.00,0,,230
2011-11-11,65,45,24,23,17,10,75,44,12,29.89,29.77,29.60,10,10,10,18,8,23,0.00,0,,247
2011-11-12,66,48,29,30,22,17,59,38,17,29.57,29.41,29.26,10,10,10,38,12,45,0.00,1,,247
2011-11-13,53,39,24,34,25,17,85,56,26,29.52,29.44,29.24,10,10,10,29,10,39,0.00,3,,271
2011-11-14,56,39,21,25,20,14,88,54,19,29.68,29.59,29.52,10,10,10,24,9,30,0.00,3,,253
2011-11-15,42,32,21,25,13,0,88,54,19,30.16,29.93,29.63,10,10,10,25,10,35,0.00,4,,292
2011-11-16,36,24,12,20,9,0,81,53,25,30.37,30.28,30.17,10,10,10,23,8,31,0.00,3,,280
2011-11-17,58,32,6,23,13,2,84,50,15,30.32,29.97,29.64,10,10,10,24,10,31,0.00,0,,221
2011-11-18,48,35,22,25,21,17,81,55,29,29.79,29.67,29.61,10,10,10,24,10,31,0.00,2,,349
2011-11-19,31,24,16,25,17,12,96,80,63,30.30,29.92,29.62,10,8,2,24,11,31,0.04,8,Snow,11
2011-11-20,42,27,12,22,16,9,96,71,45,30.32,30.22,30.08,10,10,10,18,9,26,0.00,4,,161
2011-11-21,51,35,18,26,23,16,92,64,36,30.14,30.08,30.00,10,10,10,17,5,24,0.00,0,,200
2011-11-22,57,40,23,30,24,21,88,58,28,30.10,30.04,30.01,10,10,10,18,8,22,0.00,0,,254
2011-11-23,68,47,25,29,24,21,84,51,17,30.16,30.05,29.91,10,10,10,22,11,25,0.00,0,,230
2011-11-24,75,51,26,25,20,14,75,43,10,29.89,29.80,29.72,10,10,10,23,7,29,0.00,0,,248
2011-11-25,62,47,31,28,24,20,64,44,23,29.88,29.69,29.60,10,10,10,32,12,39,0.00,0,,272
2011-11-26,42,31,20,29,12,-1,61,40,19,30.49,30.29,29.93,10,10,10,39,23,54,0.00,1,,318
2011-11-27,52,32,12,18,11,3,84,50,15,30.47,30.31,30.09,10,10,10,9,5,10,0.00,0,,246
2011-11-28,62,43,23,29,23,19,81,53,24,30.41,30.18,30.00,10,10,10,30,11,40,0.00,0,,318
2011-11-29,49,32,14,25,19,10,92,61,29,30.45,30.31,30.06,10,10,10,16,7,21,0.00,1,,225
2011-11-30,50,37,23,29,26,22,85,77,69,30.17,29.99,29.87,10,10,10,15,3,17,0.00,1,,321